РПИ Тюмень

РПИ Тюмень

РПИ Тюмень является структурным подразделением дивизиона VATRUS сети VATSIM.

РПИ осуществляет свою деятельность в границах Тюменской области, Ханты-Мансийского и Ямало-Ненецкого автономных округов. Воздушное пространство Тюменского региона, составляющее 1 млн 346 тысяч квадратных километров, простираясь от границы с Казахстаном до Карского моря, является своеобразной границей между Европейской и Азиатской частями России.

Протяженность участков воздушных трасс, проходящих над регионом, насчитывает 48 523 километра, из которых 35 989 километров – это международные воздушные трассы. В зоне ответственности РПИ Тюмень проходит весь транзитный поток воздушных судов по транссибирским и трансполярным маршрутам.

В границах района расположены 19 аэродромов, из них 4 – международных. Более половины этих аэропортов обеспечивают транспортную доступность к нефтяным месторождениям нефти и газа России, являясь стратегическими объектами энергетических компаний.

Средства связи ОВД / ATC Units:

RU-WSC_FSS - Западная Сибирь-Контроль (USSV, USTV FIRs) - 134.500

USTV_CTR - Тюмень-Контроль - РЦ Тюмень - 132.600

USTV_1_CTR - Тюмень-Контроль - Сектор 1 - 132.600

USTV_2_CTR - Тюмень-Контроль - Сектор 2 - 133.600

USTV_3_CTR - Тюмень-Контроль - Сектор 3 (Ханты Юг) - 129.400

USTV_4_CTR - Тюмень-Контроль - Сектор 4 (Сургут-Запад) - 133.300

USTV_5_CTR - Тюмень-Контроль - Сектор 5 (Ханты-Мансийск)- 135.600

USTV_6_CTR - Тюмень-Контроль - Сектор 6 (Сургут) - 132.200

USTV_7_CTR - Тюмень-Контроль - Сектор 7 (Тарко-Сале)  - 133.100

USTV_8_CTR - Тюмень-Контроль - Сектор 8 (Салехард) - 132.300

USTV_9_CTR - Тюмень-Контроль - Сектор 9 (М.Каменный) - 132.900

Ссылки на публичные ресурсы:

ВКонтакте, Discord

Руководитель РПИ

Dmitriy Bannov

Инструкторы РПИ
Andrey Tonkachev * (Senior Student)
Anton Agaev (Instructor)
Dmitriy Bannov (Instructor)
Ivan Malygin * (Senior Student)
Kirill Rudavin (Instructor)
Maxim Gerasimov (Instructor)
Входит в состав
ЗЦ Екатеринбург

Диспетчеры РПИ

Диспетчер Рейтинг Допуски *
Andrew Zolotuhin Controller USTV_CTR
Andrey Shestakov Senior Student USTV_CTR *, USTR_R_APP
Anton Agaev Instructor USTV_CTR
Dmitriy Bannov Instructor USTV_CTR
Kirill Rudavin Instructor USTV_CTR
Maxim Gerasimov Instructor USTV_CTR
Pavel Pyterikov Senior Student USTV_CTR *
Aleksey Garmash Student USTR_GND
Alekzandr Orlov Student USTR_GND
Alexander Pervov Student 2 USTR_TWR
Denis Makosov Senior Student USTR_TWR
Egor Gorelov Student USTR_GND
Igor Shitov Student 2 USRR_R_APP*, USRR_TWR, USTR_TWR
Ivan Zhuravlev Student 2 USRR_R_APP*, USRR_TWR, USTR_TWR
Kirill Ardatov Student 2 USDD_TWR, USTR_TWR, USTR_R_APP*
Konstantin Norkin Student 2 USTR_TWR, USTR_R_APP*
Nika Avdalov Student 2 USTR_TWR
Nikita Gonjarov Student 2 USHH_TWR, USTR_TWR
Vsevolod Skryabin Student 2 USMM_R_APP*, USRR_TWR, USTR_TWR

Аэропорты РПИ

ICAO Город Название Погода
USHQ Белоярский Белоярский
USHB Берёзово Берёзово
USRK Когалым Когалым
USMM Надым Надым
USNN Нижневартовск Нижневартовск USNN 010200Z 36001MPS 9000 -RA NSC 12/12 Q0995 R03/290552 NOSIG RMK QFE742
USMU Новый Уренгой Новый Уренгой
USRO Ноябрьск Ноябрьск
USHN Нягань Нягань
USDA Сабетта Сабетта USDA 010200Z 05003MPS 9999 BKN040 06/04 Q1010 R04/CLRD60 NOSIG RMK QFE756/1009
USDD Салехард Салехард
USHS Советский Советский
USRR Сургут Сургут USRR 010200Z 36008G14MPS 9999 FEW040CB 14/10 Q1000 R07/250255 NOSIG RMK QFE745
USTR Тюмень Тюмень USTR 010200Z 33006MPS CAVOK 09/07 Q1011 R21/CLRD65 R30/////99 NOSIG
USHU Урай Урай
USHH Ханты-Мансийск Ханты-Мансийск USHH 010200Z 34003MPS 270V040 CAVOK 11/08 Q1006 R06/010060 NOSIG
USHI Игрим Игрим
USDP Красноселькуп Красноселькуп
USDK Мыс Каменный Мыс Каменный
USDS Тарко-Сале Тарко-Сале